CZ-6A DEB, 55882

Orbit data source: Space-Track

CZ-6A DEB, 55882 is space debris in SSO originally from a launch on Fri, 11 Nov 2022 UTC launched from the Taiyaun Space Center, China (TSC). Debris objects in space refer to the collection of defunct objects orbiting the Earth. Examples of debris include non-operational satellites, rocket bodies, and fragments generated from explosions, collisions, or faulty payload assembly.

Loading next visibility...
Identifier
55882, 2022-151AAE
Orbit
SSO
Last TLE update
17 hours ago
Origin
Manufacturer
SAST
Mission
Spacecraft
Bus & Motor
Unknown
Mass
Unknown
Launch date (UTC)
2022-11-11 (3 years ago)
Launch vehicle
Unknown
Launch site
Taiyaun Space Center, China (TSC)
Object type
Payload
Rocket body
Debris
Shape & HBR
Unknown
Radar Cross Section
Small (<0.1 m²)

Expand to show TLE details & history

TLE from 17 hours ago
0 CZ-6A DEB
1 55882U 22151AAE 25132.97267148  .00001951  00000-0  10334-2 0  9995
2 55882  98.8169 135.9327 0048526  36.0655 324.3775 14.14231298116487
Epoch: 2025-05-12T23:20Z
Definitive object data (Epoch: 2025-05-12T23:20:38.815Z)
Latitude
-0.00009°
Longitude
-85.2071°
Altitude
819.392 km
Speed
7.458 km/s
True Right ascension
09h 03m 43s
True Declination
0° 00' 00"
Sunlit
Object was in daylight at TLE epoch
Visualization TLE readout
Latitude
80.43799°
Longitude
-150.82752°
Altitude
836.663 km
Speed
7.453 km/s
Apparent Right ascension
12h 18m 08s
Apparent Declination
35° 13' 01"
Sunlit
Object is in daylight
Visualization observer readout
Local Sidereal Time
01:09:51
Azimuth
10.856° NNE
Elevation
-13.927°
Doppler factor
1
Orbital elements
Apogee altitude
877.137 km
Perigee altitude
807.063 km
Semi-major axis
7,220.237 km
Eccentricity
0.0048526
Inclination
98.8169°
RAAN
135.9327°
Arg. of periapsis
36.0655°
True anomaly
324.05202°
Mean anomaly
324.3775°
Eccentric anomaly
324.21492°
Mean motion
3.53766 °/min
BSTAR
0.0010334
Orbital period
101.76 mins
Loading maneuver chart data...
Loading SW <> Apogee altitude chart data...
Loading historical data...
Loading historical data...
Loading historical data...
Loading historical data...
Loading historical data...
Loading historical data...
Loading historical data...

CZ-6A DEB Visibility forecast

Observer location: undefined°, undefined°

Span
Click to sort rows by Start time (UTC) header in descending order
Start Az.
Max El. time (UTC)
Max El. Az.
Max El.
End time (UTC)
End Az.
8 mins2025-05-13 23:15:34.214Z121.063° SE2025-05-13 23:19:34.214Z57.965° ENE26.993°2025-05-13 23:23:34.214Z7.697° NNE
7 mins2025-05-14 00:56:34.214Z212.432° SW2025-05-14 00:59:34.214Z261.37° W27.587°2025-05-14 01:03:34.214Z320.861° NNW
4 mins2025-05-14 11:38:34.214Z74.133° E2025-05-14 11:39:34.214Z85.806° E13.501°2025-05-14 11:42:34.214Z119.54° SE
8 mins2025-05-14 13:17:34.214Z6.372° NNE2025-05-14 13:20:34.214Z324.637° NNW42.963°2025-05-14 13:25:34.214Z203.984° SW
|